Edmonton / Gartner Airport

CFQ7 · Alberta, Canada

METAR history CFQ7 · Edmonton / Gartner Airport

Below you see METARs of the last few days. Select a year to browse through older METARs, from the year 2007 onwards.

December 6, 2022

Time Code Weather Temp. Visibility Ceiling Wind METAR/SPECI
21:00
V
-25 °C 20 mi 22,000 ft 160° 160° 14 kt METAR CYEG 070400Z 16014KT 20SM DRSN BKN220 M25/M29 A2981 RMK CI7 SLP191
20:00
V
-27 °C 20 mi 24,000 ft 160° 160° 11 - 17 kt METAR CYEG 070300Z 16011G17KT 20SM FEW220 BKN240 M27/M30 A2985 RMK CI2CI4 SLP206
19:00
V
-28 °C 20 mi - 150° 150° 14 kt METAR CYEG 070200Z 15014KT 20SM SCT220 M28/M31 A2989 RMK CI3 PRESFR SLP216
18:00
V
-28 °C 20 mi - 150° 150° 11 kt METAR CYEG 070100Z 15011KT 20SM FEW080 FEW250 M28/M32 A2993 RMK AC1CI2 AC TR SLP234
17:00
V
-28 °C 20 mi - 150° 150° 10 kt METAR CYEG 070000Z 15010KT 20SM FEW080 FEW250 M28/M31 A2995 RMK AC1CI1 AC TR CI TR SLP234
16:00
V
-28 °C 20 mi - 140° 140° 11 kt METAR CYEG 062300Z 14011KT 20SM FEW120 FEW250 M28/M31 A2997 RMK AC1CI1 AC TR CI TR SLP241
15:00
V
-28 °C 20 mi - 140° 140° 9 kt METAR CYEG 062200Z 14009KT 20SM FEW120 FEW250 M28/M31 A2999 RMK AC1CI1 AC TR CI TR SLP247
14:00
V
-26 °C 20 mi - 150° 150° 7 kt METAR CYEG 062100Z 15007KT 20SM FEW120 FEW250 M26/M29 A3001 RMK AC1CI1 AC TR CI TR SLP250
13:35
V
-26 °C 20 mi - 170° 170° 7 kt METAR CYEG 062035Z 17007KT 20SM FEW120 FEW250 M26/M29 A3001 RMK AC1CI1 AC TR CI TR SLP252
13:00
V
-28 °C 15 mi - 170° 170° 6 kt METAR CYEG 062000Z 17006KT 15SM IC FEW120 FEW250 M28/M31 A3003 RMK AC1CI1 AC TR SLP260
12:00
V
-31 °C 15 mi - 170° 170° 6 kt METAR CYEG 061900Z 17006KT 15SM IC FEW120 FEW250 M31/M34 A3004 RMK AC1CI1 AC TR CI TR SLP268
11:00
V
-35 °C 15 mi - 170° 170° 4 kt METAR CYEG 061800Z 17004KT 15SM R02/2000V2400FT/N IC FEW040 FEW120 FEW250 M35/M38 A3006 RMK SC1AC1CI1 SC TR AC TR CI TR SLP277
10:00
V
-37 °C 15 mi - 190° 190° 4 kt METAR CYEG 061700Z 19004KT 15SM IC FEW040 FEW120 M37/M40 A3007 RMK SC1AC1 SC TR AC TR SLP279
09:00
V
-38 °C 20 mi - 150° 150° 2 kt METAR CYEG 061600Z 15002KT 20SM R02/2800V5000FT/D IC FEW040 FEW120 M38/M42 A3007 RMK SC1AC1 SC TR AC TR VIS NE QUAD 1 SLP279
08:00
V
-38 °C 15 mi - Var 000° 0 kt METAR CYEG 061500Z 00000KT 15SM IC FEW040 FEW250 M38/M42 A3006 RMK SC1CI1 SC TR CI TR SLP276
07:00
V
-35 °C 15 mi - 190° 190° 3 kt METAR CYEG 061400Z 19003KT 15SM IC FEW038 M35/M38 A3007 RMK SC1 SC TR SLP273
06:31
I
-37 °C 3 mi - 210° 210° 4 kt METAR CYEG 061331Z 21004KT 3SM IC SKC M37/M40 A3007 RMK SLP273
06:00
I
-37 °C 2¼ mi - 220° 220° 4 kt METAR CYEG 061300Z 22004KT 2 1/4SM IC SKC M37/M40 A3006 RMK IC1 SLP270
05:39
I
-37 °C 2½ mi - 220° 220° 5 kt METAR CYEG 061239Z 22005KT 2 1/2SM IC FEW038 M37/M41 A3006 RMK IC1SC1 SC TR SLP269
05:00
V
-32 °C 15 mi - Var 000° 0 kt METAR CYEG 061200Z CCA 00000KT 15SM IC FEW038 M32/M35 A3006 RMK SC1 SC TR SLP263
04:00
V
-31 °C 15 mi - 240° 240° 2 kt METAR CYEG 061100Z 24002KT 15SM IC FEW038 M31/M34 A3006 RMK SC1 SLP261
03:00
M
-31 °C 4 mi 3,800 ft Var Var 2 kt METAR CYEG 061000Z VRB02KT 4SM IC BKN038 M31/M34 A3006 RMK SC7 SLP259
02:12
I
-29 °C 3 mi 3,800 ft 330° 330° 5 kt METAR CYEG 060912Z 33005KT 3SM IC BKN038 M29/M32 A3006 RMK SC7 SLP255
02:00
I
-29 °C 2 mi 3,800 ft 340° 340° 5 kt METAR CYEG 060900Z 34005KT 2SM IC BKN038 M29/M32 A3005 RMK IC1SC6 VIS W 4 SLP254
01:00
I
-29 °C 1¾ mi 3,700 ft 310° 310° 4 kt METAR CYEG 060800Z 31004KT 1 3/4SM IC BKN037 M29/M32 A3005 RMK IC2SC5 VIS W 4 SLP252
00:26
I
-30 °C 1½ mi 3,700 ft 250° 250° 3 kt METAR CYEG 060726Z 25003KT 1 1/2SM R02/4000V6000FT/U IC SCT020 SCT026 BKN037 M30/M33 A3004 RMK IC2SC1SC2SC3 SC TR VIS W 4 SLP251
00:00
I
-30 °C 1¼ mi - 260° 260° 3 kt METAR CYEG 060700Z 26003KT 1 1/4SM R02/3500V4500FT/N IC SCT035 M30/M33 A3004 RMK IC2SC2 VIS W 3 SLP252

December 5, 2022

Time Code Weather Temp. Visibility Ceiling Wind METAR/SPECI
23:48
I
-29 °C 1 mi - 250° 250° 4 kt METAR CYEG 060648Z 25004KT 240V330 1SM R02/4500V5500FT/N R30/P6000FT/D IC SKC M29/M32 A3004 RMK IC3 VIS W 3 SLP250
23:36
L
-28 °C ¾ mi - 340° 340° 5 kt METAR CYEG 060636Z 34005KT 3/4SM R02/4000V6000FT/D R30/P6000FT/N IC SKC M28/M31 A3003 RMK IC3 SLP247
23:28
I
-28 °C 1¼ mi - 340° 340° 5 kt METAR CYEG 060628Z 34005KT 1 1/4SM R02/5500VP6000FT/D IC SKC M28/M31 A3003 RMK IC3 SLP247
23:21
I
-28 °C 2½ mi - 340° 340° 6 kt METAR CYEG 060621Z 34006KT 2 1/2SM IC SKC M28/M30 A3003 RMK SLP246
23:00
V
-28 °C 20 mi - 340° 340° 5 kt METAR CYEG 060600Z 34005KT 20SM IC FEW038 M28/M31 A3003 RMK SC1 SC TR SLP247
22:28
V
-28 °C 20 mi - 310° 310° 4 kt METAR CYEG 060528Z 31004KT 20SM IC FEW038 M28/M30 A3003 RMK SC2 SLP246
22:07
V
-26 °C 20 mi - 320° 320° 4 kt METAR CYEG 060507Z 32004KT 20SM -SN SCT038 SCT180 M26/M29 A3002 RMK SC3AC1 AC TR SLP243
21:20
V
-26 °C 20 mi - 020° 020° 8 kt METAR CYEG 060420Z 02008KT 20SM SCT039 M26/M29 A3001 RMK SC3 SLP238
21:00
V
-25 °C 20 mi - 350° 350° 4 kt METAR CYEG 060400Z 35004KT 20SM IC SCT039 M25/M28 A3001 RMK SC3 SLP236
20:52
V
-25 °C 20 mi - 360° 360° 6 kt METAR CYEG 060352Z 36006KT 20SM IC FEW039 M25/M28 A3001 RMK SC2 SLP237
20:00
V
-23 °C 20 mi - 350° 350° 12 kt METAR CYEG 060300Z 35012KT 20SM DRSN FEW050 M23/M27 A2999 RMK SC1 SC TR SLP230
19:00
V
-21 °C 20 mi - 360° 360° 17 kt METAR CYEG 060200Z 36017KT 20SM DRSN FEW050 M21/M27 A2996 RMK SC1 SLP222
18:10
V
-20 °C 20 mi 4,200 ft 350° 350° 16 - 21 kt METAR CYEG 060110Z 35016G21KT 20SM DRSN BKN042 M20/M25 A2995 RMK SC5 SLP217
18:00
V
-20 °C 20 mi - 350° 350° 15 - 23 kt METAR CYEG 060100Z 35015G23KT 20SM DRSN SCT042 M20/M25 A2995 RMK SC4 INTMT -SN SLP217
17:00
M
-18 °C 4 mi - 350° 350° 19 - 27 kt METAR CYEG 060000Z 35019G27KT 4SM -SN DRSN FEW027 SCT055 M18/M22 A2993 RMK SC2SC1 VIS E QUAD 2 SLP208
16:00
V
-16 °C 6 mi - 340° 340° 19 - 25 kt METAR CYEG 052300Z 34019G25KT 6SM -SN DRSN SCT021 SCT041 M16/M21 A2990 RMK SC3SC1 PRESRR SLP196
15:05
M
-14 °C 15 mi 2,300 ft 310° 310° 11 kt METAR CYEG 052205Z 31011KT 15SM -SN BKN023 BKN050 M14/M18 A2986 RMK SC5SC2 SLP179
14:47
V
-15 °C 15 mi 25,000 ft 310° 310° 6 kt METAR CYEG 052147Z 31006KT 15SM FEW030 SCT045 BKN250 M15/M18 A2986 RMK SC2SC1CI4 SLP178
14:11
M
-14 °C 4 mi 6,000 ft 330° 330° 8 kt METAR CYEG 052111Z 33008KT 4SM -SN SCT033 BKN060 M14/M17 A2986 RMK SC4SC2 SLP176
14:00
I
-14 °C 2½ mi 6,000 ft 340° 340° 6 kt METAR CYEG 052100Z 34006KT 2 1/2SM -SN BKN060 M14/M17 A2986 RMK SN2SC5 SLP175
13:56
I
-14 °C 2½ mi 6,000 ft 340° 340° 5 kt METAR CYEG 052056Z 34005KT 2 1/2SM -SN BKN060 M14/M17 A2986 RMK SN2SC5 SLP174
13:27
I
-15 °C 3 mi 5,900 ft 350° 350° 6 kt METAR CYEG 052027Z 35006KT 3SM -SN BKN059 M15/M17 A2986 RMK SC7 SLP177
13:00
I
-15 °C 2½ mi 2,300 ft 360° 360° 5 kt METAR CYEG 052000Z 36005KT 2 1/2SM -SN BKN023 M15/M17 A2985 RMK SN2SC5 SLP172
12:21
I
-15 °C 2½ mi 2,500 ft Var 000° 0 kt METAR CYEG 051921Z 00000KT 2 1/2SM -SN OVC025 M15/M17 A2985 RMK SN4SC4 SLP171
12:00
M
-15 °C 3 mi 3,000 ft Var 000° 0 kt METAR CYEG 051900Z 00000KT 3SM -SN OVC030 M15/M17 A2985 RMK SN2SC6 SLP168
11:08
I
-15 °C 3 mi 4,500 ft 160° 160° 3 kt METAR CYEG 051808Z 16003KT 3SM -SN BKN045 M15/M18 A2986 RMK SN2SC5 SLP171
10:05
I
-16 °C 2½ mi 4,500 ft 200° 200° 4 kt METAR CYEG 051705Z 20004KT 2 1/2SM -SN OVC045 M16/M18 A2986 RMK SN4SC4 SLP170
10:00
I
-16 °C 3 mi 4,500 ft 190° 190° 4 kt METAR CYEG 051700Z 19004KT 3SM -SN OVC045 M16/M18 A2986 RMK SN2SC6 SLP169
09:00
V
-17 °C 6 mi 4,500 ft 180° 180° 6 kt METAR CYEG 051600Z 18006KT 6SM -SN BKN045 M17/M20 A2988 RMK SC7 SLP174
08:03
V
-20 °C 20 mi 4,600 ft 170° 170° 3 kt METAR CYEG 051503Z 17003KT 20SM -SN OVC046 M20/M22 A2991 RMK SC8 FROIN SLP189
08:00
V
-20 °C 20 mi 4,600 ft 170° 170° 4 kt METAR CYEG 051500Z 17004KT 20SM OVC046 M20/M22 A2992 RMK SC8 VIRGA ALQDS FROIN SLP190
07:00
V
-23 °C 20 mi 7,900 ft 200° 200° 3 kt METAR CYEG 051400Z 20003KT 20SM BKN079 OVC110 M23/M25 A2993 RMK AC6AC2 VIRGA PTCHS FROIN SLP197
06:00
V
-23 °C 20 mi 8,200 ft 190° 190° 4 kt METAR CYEG 051300Z 19004KT 20SM FEW035 BKN082 M23/M25 A2995 RMK SC1AC5 VIRGA PTCHS FROIN SLP203
05:34
V
-22 °C 20 mi 8,600 ft 190° 190° 6 kt METAR CYEG 051234Z 19006KT 20SM FEW035 BKN086 M22/M24 A2996 RMK SC2AC5 VIRGA PTCHS FROIN SLP204
05:12
V
-22 °C 20 mi 8,600 ft 200° 200° 4 kt METAR CYEG 051212Z 20004KT 20SM -SN SCT035 BKN086 M22/M24 A2997 RMK SC3AC3 FROIN SLP209
05:00
V
-22 °C 20 mi 3,500 ft 200° 200° 3 kt METAR CYEG 051200Z 20003KT 20SM BKN035 BKN090 M22/M24 A2998 RMK SC5AC2 VIRGA PTCHS FROIN SLP210
04:00
V
-22 °C 20 mi - 200° 200° 4 kt METAR CYEG 051100Z 20004KT 20SM SCT110 M22/M24 A2999 RMK AC3 FROIN SLP215
03:00
V
-21 °C 20 mi - 220° 220° 2 kt METAR CYEG 051000Z 22002KT 20SM SCT090 M21/M24 A3002 RMK AC3 SLP223
02:00
V
-18 °C 20 mi 9,100 ft 330° 330° 4 kt METAR CYEG 050900Z 33004KT 20SM FEW036 BKN091 M18/M21 A3003 RMK SC1AC5 SC TR SLP224
01:00
V
-16 °C 20 mi - 340° 340° 6 kt METAR CYEG 050800Z 34006KT 20SM FEW036 SCT090 M16/M20 A3005 RMK SC1AC4 SC TR SLP229
00:00
V
-13 °C 20 mi - 350° 350° 9 kt METAR CYEG 050700Z 35009KT 20SM FEW036 SCT080 M13/M19 A3005 RMK SC1AC2 SLP226

December 4, 2022

Time Code Weather Temp. Visibility Ceiling Wind METAR/SPECI
23:00
V
-12 °C 20 mi 9,800 ft 010° 010° 9 kt METAR CYEG 050600Z 01009KT 20SM FEW042 BKN098 M12/M17 A3004 RMK SC2AC4 SLP222
22:28
V
-11 °C 20 mi 10,000 ft 010° 010° 11 kt METAR CYEG 050528Z 01011KT 20SM SCT042 OVC100 M11/M14 A3004 RMK SC3AC5 VIRGA PTCHS SLP221
22:00
V
-9 °C 20 mi 4,200 ft 010° 010° 16 - 23 kt METAR CYEG 050500Z 01016G23KT 20SM -SN DRSN BKN042 OVC092 M09/M13 A3004 RMK SC6AC2 SLP218
21:00
V
-7 °C 20 mi 4,000 ft 350° 350° 12 - 23 kt METAR CYEG 050400Z 35012G23KT 20SM DRSN BKN040 BKN110 M07/M13 A3001 RMK SC5AC2 VIRGA PTCHS SLP206
20:00
V
-6 °C 20 mi 5,000 ft 350° 350° 11 kt METAR CYEG 050300Z 35011KT 20SM BKN050 BKN080 BKN100 M06/M13 A2999 RMK SC5AC1AC1 VIRGA PTCHS SLP201
19:43
V
-6 °C 20 mi 8,000 ft 360° 360° 11 - 18 kt METAR CYEG 050243Z 36011G18KT 20SM SCT050 BKN080 BKN100 M06/M13 A2999 RMK SC4AC2AC1 SLP200
19:28
V
-5 °C 20 mi 4,200 ft 350° 350° 16 kt METAR CYEG 050228Z CCA 35016KT 20SM -SN DRSN BKN042 OVC080 M05/M12 A2999 RMK SC5AC3 DRSN SLP196
19:00
V
-5 °C 20 mi 8,000 ft 320° 320° 10 kt METAR CYEG 050200Z 32010KT 20SM FEW047 BKN080 OVC100 M05/M11 A2998 RMK SC2AC5AC1 VIRGA ALQDS SLP193
18:00
V
-5 °C 20 mi 9,500 ft 310° 310° 10 - 16 kt METAR CYEG 050100Z 31010G16KT 20SM BKN095 BKN110 M05/M10 A2997 RMK AC5AC2 SLP192
17:00
V
-4 °C 20 mi 9,500 ft 310° 310° 12 - 17 kt METAR CYEG 050000Z 31012G17KT 20SM FEW078 BKN095 M04/M11 A2997 RMK AC1AC6 VIRGA ALQDS SLP192
16:00
V
-3 °C 20 mi 10,000 ft 310° 310° 13 - 19 kt METAR CYEG 042300Z 31013G19KT 20SM BKN100 M03/M11 A2996 RMK AC7 VIRGA ALQDS SLP186
15:00
V
-3 °C 20 mi 10,000 ft 310° 310° 14 - 23 kt METAR CYEG 042200Z 31014G23KT 20SM BKN100 M03/M11 A2995 RMK AC7 VIRGA ALQDS SLP182
14:00
V
-2 °C 20 mi 8,500 ft 310° 310° 13 kt METAR CYEG 042100Z 31013KT 20SM OVC085 M02/M11 A2995 RMK AC8 VIRGA ALQDS SLP182
13:00
V
-2 °C 20 mi 7,000 ft 320° 320° 16 kt METAR CYEG 042000Z 32016KT 20SM BKN070 M02/M10 A2995 RMK AC7 SLP184
12:00
V
-2 °C 20 mi 8,800 ft 320° 320° 16 kt METAR CYEG 041900Z 32016KT 20SM SCT070 BKN088 M02/M09 A2995 RMK AC4AC3 VIRGA OHD SLP189
11:00
V
-3 °C 20 mi 23,000 ft 290° 290° 13 kt METAR CYEG 041800Z 29013KT 20SM FEW068 BKN230 M03/M07 A2995 RMK AC1CI4 SLP189
10:00
V
-4 °C 20 mi - 290° 290° 12 kt METAR CYEG 041700Z 29012KT 20SM FEW076 SCT230 M04/M08 A2995 RMK AC1CI4 AC TR SLP189
09:00
V
-3 °C 20 mi 6,000 ft 290° 290° 15 - 20 kt METAR CYEG 041600Z 29015G20KT 20SM BKN060 BKN076 M03/M07 A2993 RMK SC6AC1 SLP182
08:00
V
-3 °C 20 mi 7,600 ft 300° 300° 13 kt METAR CYEG 041500Z 30013KT 20SM FEW032 SCT053 BKN076 M03/M07 A2992 RMK SC1SC4AC3 LWR SC TR SLP180
07:00
V
-2 °C 20 mi 7,600 ft 320° 320° 16 kt METAR CYEG 041400Z 32016KT 20SM SCT032 BKN076 M02/M07 A2990 RMK SC4AC3 SLP172
06:00
V
-4 °C 20 mi - 300° 300° 13 kt METAR CYEG 041300Z 30013KT 20SM FEW040 SCT100 SCT220 M04/M08 A2988 RMK SC2AC1CI1 SLP170
05:00
V
-4 °C 20 mi - 290° 290° 10 - 16 kt METAR CYEG 041200Z 29010G16KT 20SM FEW100 FEW150 FEW220 M04/M09 A2985 RMK AC1AC1CI2 AC TR AC TR SLP156
04:00
V
-3 °C 20 mi - 300° 300° 18 - 24 kt METAR CYEG 041100Z 30018G24KT 20SM FEW100 FEW150 SCT240 M03/M09 A2983 RMK AC1AC1CI2 AC TR SLP150
03:00
V
-3 °C 20 mi - 300° 300° 16 kt METAR CYEG 041000Z 30016KT 20SM FEW150 SCT240 M03/M10 A2982 RMK AC1CI2 SLP144

We and third parties follow your internet behavior on our website with cookies. If you continue, we assume you agree with our cookie policy.